Weather in Oktyabrskoye

Russia / Republic of North Ossetia — Alania     43°03′24″N   44°44′52″E
temp.,
°C
wind,
m/s
gust,
m/s
humid.,
%
clouds,
%
prec.,
mm/h
press.,
hPa
HPBL,
m
7 march, sun
sun700:00+2s3354100 0.0 101543
03:00+1sse1258100 0.0 101744
06:00−4wnw2695100 4.7 1022483
09:00−3nnw2391100 5.8 1022418
12:00−3n3382100 0.9 1022639
15:00−1ne2371100 1.5 1021823
18:00−4ene237682 0.1 1022269
21:00−6se137757 0.1 1023165
8 march, mon
mon800:00−5se11730 0.0 102269
03:00−6s11761 0.0 102253
06:00−6ssw01750 0.0 102175
09:00−2nnw12709 0.0 1019405
12:000n336176 0.0 1017835
15:00+1n226188 0.1 1016912
18:00−3n1186100 0.3 1017257
21:00−3s1186100 0.6 1019152
9 march, tue
tue900:00−4s118094 0.0 101852
03:00−5s117656 0.0 101840
06:00−5ssw117795 0.1 101855
09:00−1n117487 0.1 1018432
12:00+2nne116878 0.1 1016822
15:00+3n225769 0.1 10161100
18:000nne116587 0.2 1018367
21:00−2ssw119193 0.8 102295
10 march, wed
wed1000:00−4ssw2294100 3.7 1022129
03:00−4ssw2295100 5.8 1024128
06:00−5sse1194100 0.9 1025103
09:00−3nne2287100 1.2 1024519
12:00−2nne2386100 0.4 1022586
15:00−2nne2487100 1.0 1020569
18:00−4ene1390100 0.6 1021237
21:00−5e1391100 0.6 1021190
11 march, thu
thu1100:00−6ese2491100 0.1 1019277
03:00−6e1492100 0.2 1019350
06:00−7ene2492100 0.2 1018325
09:00−5ene3586100 0.5 1017626
12:00−5ne4686100 0.8 1015734
15:00−6ne4790100 2.4 1014752
18:00−9ne3593100 1.8 1017558
21:00−10ene2493100 2.5 1019352